Platteville, WI

5:24 AM CST on February 24, 2017 (GMT -0600)
Platteville Municipal

Weather History for KPVB - October, 2013

Change the Weather History Date:

Wednesday, October 16, 2013

  Actual Average (KDBQ) Record (KDBQ)
Temperature  
Mean Temperature 49 °F -  
Max Temperature 51 °F 60 °F 86 °F (1950)
Min Temperature 47 °F 39 °F 26 °F (1952)
Degree Days  
Heating Degree Days 16    
Moisture  
Dew Point 45 °F    
Average Humidity 88    
Maximum Humidity 94    
Minimum Humidity 80    
Precipitation  
Precipitation 0.00 in - - ()
Sea Level Pressure  
Sea Level Pressure 29.89 in    
Wind  
Wind Speed 10 mph (West)    
Max Wind Speed 15 mph    
Max Gust Speed 22 mph    
Visibility 9 miles    
Events      
Averages and records for this station are not official NWS values.
T = Trace of Precipitation, MM = Missing Value Source: NWS Daily Summary

Daily Weather History Graph

Daily Weather History Graph

Search for Another Location

Airport or City:

Trip Planner

Search our weather history database for the weather conditions in past years. The results will help you decide how hot, cold, wet, or windy it might be!

Date:

Astronomy

Oct. 16, 2013 Rise Set
Actual Time 7:16 AM CDT 6:17 PM CDT
Civil Twilight 6:47 AM CDT 6:45 PM CDT
Nautical Twilight 6:15 AM CDT 7:18 PM CDT
Astronomical Twilight 5:42 AM CDT 7:51 PM CDT
Moon 4:59 PM CDT (10/16) 4:41 AM CDT (10/16)
Length of Visible Light 11h 57m
Length of Day
11h 00m
Waxing Gibbous, 94% of the Moon is Illuminated
Oct 16
Waxing Gibbous
Oct 18
Full
Oct 26
Last Quarter
Nov 3
New
Nov 9
First Quarter

Hourly Weather History & Observations

Time (CDT) Temp. Dew Point Humidity Pressure Visibility Wind Dir Wind Speed Gust Speed Precip Events Conditions
12:15 AM 49.3 °F 44.1 °F 82% 29.82 in 10.0 mi SW 13.8 mph 17.3 mph N/A   Overcast
12:35 AM 49.1 °F 44.2 °F 83% 29.82 in 10.0 mi SW 11.5 mph 21.9 mph N/A   Overcast
12:55 AM 48.9 °F 44.6 °F 85% 29.82 in 10.0 mi SW 12.7 mph 20.7 mph N/A   Overcast
1:15 AM 49.1 °F 44.2 °F 83% 29.82 in 10.0 mi WSW 10.4 mph - N/A   Overcast
1:35 AM 49.1 °F 44.2 °F 83% 29.82 in 10.0 mi WSW 13.8 mph 17.3 mph N/A   Overcast
1:55 AM 48.7 °F 44.4 °F 85% 29.82 in 10.0 mi WSW 12.7 mph 19.6 mph N/A   Overcast
2:15 AM 48.6 °F 44.6 °F 86% 29.82 in 10.0 mi SW 13.8 mph - N/A   Overcast
2:35 AM 48.2 °F 44.6 °F 87% 29.82 in 10.0 mi SW 12.7 mph 20.7 mph N/A   Overcast
2:55 AM 47.8 °F 44.6 °F 89% 29.82 in 7.0 mi SW 12.7 mph - N/A   Overcast
3:15 AM 47.5 °F 44.6 °F 90% 29.82 in 7.0 mi WSW 13.8 mph - N/A   Overcast
3:35 AM 47.3 °F 44.8 °F 91% 29.82 in 4.0 mi SW 15.0 mph 19.6 mph N/A   Overcast
3:55 AM 47.3 °F 45.0 °F 92% 29.82 in 7.0 mi WSW 12.7 mph 18.4 mph N/A   Overcast
4:15 AM 47.3 °F 45.0 °F 92% 29.82 in 10.0 mi WSW 11.5 mph 18.4 mph N/A   Overcast
4:35 AM 47.3 °F 45.0 °F 92% 29.82 in 7.0 mi WSW 11.5 mph - N/A   Overcast
4:55 AM 47.3 °F 45.1 °F 92% 29.82 in 7.0 mi WSW 11.5 mph 17.3 mph N/A   Overcast
5:15 AM 47.3 °F 45.5 °F 93% 29.83 in 5.0 mi WSW 10.4 mph 16.1 mph N/A   Overcast
5:35 AM 47.3 °F 45.5 °F 93% 29.83 in 3.0 mi WSW 9.2 mph - N/A   Overcast
5:55 AM 47.3 °F 45.7 °F 94% 29.83 in 4.0 mi WSW 12.7 mph 17.3 mph N/A   Overcast
6:15 AM 47.5 °F 45.9 °F 94% 29.83 in 7.0 mi WSW 11.5 mph 17.3 mph N/A   Overcast
6:35 AM 47.7 °F 45.9 °F 93% 29.84 in 10.0 mi West 8.1 mph - N/A   Overcast
6:55 AM 47.8 °F 46.0 °F 93% 29.84 in 10.0 mi WSW 8.1 mph - N/A   Overcast
7:15 AM 48.2 °F 46.0 °F 92% 29.84 in 10.0 mi West 11.5 mph 17.3 mph N/A   Overcast
7:35 AM 48.2 °F 46.0 °F 92% 29.85 in 7.0 mi West 11.5 mph - N/A   Overcast
7:55 AM 48.2 °F 46.0 °F 92% 29.85 in 7.0 mi WSW 9.2 mph - N/A   Overcast
8:15 AM 48.2 °F 46.0 °F 92% 29.86 in 10.0 mi West 8.1 mph - N/A   Overcast
8:35 AM 48.2 °F 45.9 °F 92% 29.87 in 10.0 mi West 11.5 mph 16.1 mph N/A   Overcast
8:55 AM 48.2 °F 46.0 °F 92% 29.87 in 10.0 mi West 10.4 mph - N/A   Overcast
9:15 AM 48.6 °F 46.4 °F 92% 29.88 in 10.0 mi West 9.2 mph - N/A   Overcast
9:35 AM 49.3 °F 46.8 °F 91% 29.87 in 10.0 mi West 6.9 mph - N/A   Overcast
9:55 AM 50.0 °F 46.8 °F 89% 29.88 in 10.0 mi West 9.2 mph - N/A   Overcast
10:15 AM 50.0 °F 46.6 °F 88% 29.88 in 10.0 mi WNW 6.9 mph - N/A   Overcast
10:35 AM 49.6 °F 46.0 °F 87% 29.89 in 10.0 mi West 6.9 mph - N/A   Overcast
10:55 AM 50.0 °F 46.0 °F 86% 29.89 in 10.0 mi West 10.4 mph - N/A   Overcast
11:15 AM 50.4 °F 46.0 °F 85% 29.90 in 10.0 mi WNW 8.1 mph - N/A   Overcast
11:35 AM 50.2 °F 45.7 °F 85% 29.90 in 10.0 mi West 9.2 mph - N/A   Overcast
11:55 AM 50.0 °F 45.5 °F 85% 29.91 in 10.0 mi WNW 9.2 mph - N/A   Overcast
12:15 PM 51.4 °F 46.0 °F 82% 29.91 in 10.0 mi WNW 4.6 mph - N/A   Overcast
12:35 PM 51.3 °F 45.3 °F 80% 29.91 in 10.0 mi West 9.2 mph - N/A   Overcast
12:55 PM 51.3 °F 45.5 °F 81% 29.91 in 10.0 mi West 9.2 mph - N/A   Overcast
1:15 PM 50.5 °F 45.5 °F 83% 29.90 in 10.0 mi WNW 6.9 mph - N/A   Overcast
1:35 PM 50.2 °F 45.0 °F 82% 29.90 in 10.0 mi West 6.9 mph - N/A   Overcast
1:55 PM 50.0 °F 45.0 °F 83% 29.90 in 10.0 mi West 9.2 mph - N/A   Overcast
2:15 PM 50.9 °F 45.1 °F 81% 29.90 in 10.0 mi West 9.2 mph - N/A   Overcast
2:35 PM 50.0 °F 44.8 °F 82% 29.90 in 10.0 mi West 6.9 mph - N/A   Overcast
2:55 PM 49.5 °F 44.8 °F 84% 29.91 in 10.0 mi West 11.5 mph 17.3 mph N/A   Overcast
3:15 PM 48.9 °F 45.1 °F 87% 29.91 in 10.0 mi WNW 8.1 mph - N/A   Overcast
3:35 PM 48.7 °F 45.3 °F 88% 29.91 in 7.0 mi West 10.4 mph - N/A   Overcast
3:55 PM 49.1 °F 45.3 °F 87% 29.91 in 10.0 mi West 9.2 mph - N/A   Overcast
4:15 PM 49.1 °F 44.8 °F 85% 29.91 in 10.0 mi West 8.1 mph - N/A   Overcast
4:35 PM 49.1 °F 44.8 °F 85% 29.91 in 10.0 mi WNW 8.1 mph - N/A   Overcast
4:55 PM 48.7 °F 44.8 °F 86% 29.91 in 10.0 mi WNW 6.9 mph - N/A   Overcast
5:15 PM 48.4 °F 44.6 °F 87% 29.91 in 10.0 mi WNW 10.4 mph 16.1 mph N/A   Overcast
5:35 PM 47.7 °F 44.8 °F 90% 29.92 in 7.0 mi WNW 6.9 mph - N/A   Overcast
5:55 PM 47.7 °F 44.8 °F 90% 29.92 in 10.0 mi WNW 5.8 mph - N/A   Overcast
6:15 PM 47.7 °F 44.6 °F 89% 29.92 in 10.0 mi West 4.6 mph - N/A   Overcast
6:35 PM 47.7 °F 44.6 °F 89% 29.92 in 10.0 mi West 4.6 mph - N/A   Overcast
6:55 PM 47.8 °F 44.6 °F 89% 29.92 in 10.0 mi West 4.6 mph - N/A   Overcast
7:15 PM 48.2 °F 44.6 °F 87% 29.93 in 10.0 mi WNW 3.5 mph - N/A   Overcast
7:35 PM 48.2 °F 44.6 °F 87% 29.93 in 10.0 mi WNW 3.5 mph - N/A   Overcast
7:55 PM 48.2 °F 44.6 °F 87% 29.94 in 10.0 mi WNW 3.5 mph - N/A   Overcast
8:15 PM 48.0 °F 44.4 °F 87% 29.94 in 10.0 mi NW 4.6 mph - N/A   Overcast
8:35 PM 47.8 °F 44.1 °F 87% 29.94 in 10.0 mi NW 3.5 mph - N/A   Overcast
8:55 PM 47.8 °F 44.1 °F 87% 29.95 in 10.0 mi Calm Calm - N/A   Overcast
9:15 PM 47.8 °F 44.2 °F 87% 29.95 in 10.0 mi Calm Calm - N/A   Overcast
9:35 PM 47.8 °F 44.2 °F 87% 29.96 in 10.0 mi Calm Calm - N/A   Overcast
9:55 PM 47.8 °F 44.2 °F 87% 29.96 in 10.0 mi WSW 3.5 mph - N/A   Overcast
10:15 PM 47.8 °F 44.2 °F 87% 29.95 in 10.0 mi Calm Calm - N/A   Overcast
10:35 PM 47.7 °F 44.1 °F 87% 29.95 in 10.0 mi Calm Calm - N/A   Overcast
10:55 PM 47.7 °F 43.9 °F 87% 29.95 in 10.0 mi Calm Calm - N/A   Overcast
11:15 PM 47.5 °F 44.1 °F 88% 29.94 in 10.0 mi Calm Calm - N/A   Overcast
11:35 PM 47.5 °F 44.1 °F 88% 29.94 in 10.0 mi Calm Calm - N/A   Overcast
11:55 PM 47.5 °F 44.2 °F 89% 29.94 in 10.0 mi Calm Calm - N/A   Overcast